| time (UTC) | temp C | wind direction | speed KPH | gust KPH | rain 1hr cm | rain 24hr cm | rain mn cm | humidity % | barometer mb |
| 20260505224010 | 26 | 124 | 1.6 | 14.5 | 0.00 | 0.00 | 0.00 | 43 | 1014.2 |
| 20260505223509 | 26 | 144 | 1.6 | 11.3 | 0.00 | 0.00 | 0.00 | 42 | 1014.0 |
| 20260505223021 | 26 | 222 | 3.2 | 11.3 | 0.00 | 0.00 | 0.00 | 41 | 1013.7 |
| 20260505222510 | 26 | 203 | 3.2 | 9.7 | 0.00 | 0.00 | 0.00 | 43 | 1014.2 |
| 20260505222015 | 26 | 207 | 4.8 | 9.7 | 0.00 | 0.00 | 0.00 | 39 | 1014.2 |
| 20260505221528 | 27 | 231 | 3.2 | 9.7 | 0.00 | 0.00 | 0.00 | 40 | 1014.1 |
| 20260505221009 | 26 | 140 | 1.6 | 9.7 | 0.00 | 0.00 | 0.00 | 40 | 1014.1 |
| 20260505220503 | 27 | 240 | 3.2 | 11.3 | 0.00 | 0.00 | 0.00 | 40 | 1014.1 |
| 20260505220011 | 27 | 229 | 3.2 | 11.3 | 0.00 | 0.00 | 0.00 | 40 | 1014.2 |
| 20260505215504 | 27 | 206 | 3.2 | 11.3 | 0.00 | 0.00 | 0.00 | 40 | 1014.2 |
| 20260505215006 | 26 | 143 | 1.6 | 11.3 | 0.00 | 0.00 | 0.00 | 42 | 1014.1 |
| 20260505214516 | 26 | 231 | 3.2 | 16.1 | 0.00 | 0.00 | 0.00 | 40 | 1014.0 |
| 20260505214006 | 27 | 285 | 4.8 | 16.1 | 0.00 | 0.00 | 0.00 | 40 | 1014.1 |
| 20260505213508 | 27 | 226 | 3.2 | 12.9 | 0.00 | 0.00 | 0.00 | 41 | 1014.2 |
| 20260505213024 | 27 | 151 | 1.6 | 9.7 | 0.00 | 0.00 | 0.00 | 40 | 1014.2 |
| 20260505212513 | 27 | 243 | 3.2 | 11.3 | 0.00 | 0.00 | 0.00 | 41 | 1014.2 |
| 20260505212010 | 26 | 130 | 3.2 | 11.3 | 0.00 | 0.00 | 0.00 | 40 | 1014.2 |
| 20260505211526 | 26 | 160 | 4.8 | 9.7 | 0.00 | 0.00 | 0.00 | 40 | 1014.4 |
| 20260505211009 | 26 | 105 | 3.2 | 8.0 | 0.00 | 0.00 | 0.00 | 39 | 1014.4 |
| 20260505210510 | 26 | 226 | 4.8 | 16.1 | 0.00 | 0.00 | 0.00 | 39 | 1014.4 |
| 20260505210026 | 26 | 119 | 4.8 | 20.9 | 0.00 | 0.00 | 0.00 | 39 | 1014.4 |
| 20260505205508 | 26 | 119 | 4.8 | 20.9 | 0.00 | 0.00 | 0.00 | 39 | 1014.5 |
| 20260505205007 | 26 | 276 | 3.2 | 9.7 | 0.00 | 0.00 | 0.00 | 41 | 1014.5 |
| 20260505204513 | 26 | 248 | 1.6 | 14.5 | 0.00 | 0.00 | 0.00 | 40 | 1014.5 |
| 20260505204006 | 26 | 221 | 4.8 | 14.5 | 0.00 | 0.00 | 0.00 | 39 | 1014.7 |
| 20260505203505 | 27 | 219 | 4.8 | 12.9 | 0.00 | 0.00 | 0.00 | 39 | 1014.6 |
| 20260505203026 | 27 | 131 | 3.2 | 14.5 | 0.00 | 0.00 | 0.00 | 39 | 1014.6 |
| 20260505202505 | 27 | 134 | 6.4 | 14.5 | 0.00 | 0.00 | 0.00 | 38 | 1014.7 |
| 20260505202009 | 27 | 230 | 3.2 | 12.9 | 0.00 | 0.00 | 0.00 | 39 | 1014.9 |
| 20260505201520 | 26 | 162 | 3.2 | 12.9 | 0.00 | 0.00 | 0.00 | 40 | 1014.9 |
| 20260505201005 | 26 | 214 | 1.6 | 8.0 | 0.00 | 0.00 | 0.00 | 40 | 1014.9 |
| 20260505200509 | 26 | 199 | 3.2 | 8.0 | 0.00 | 0.00 | 0.00 | 40 | 1015.0 |
| 20260505200026 | 26 | 267 | 1.6 | 9.7 | 0.00 | 0.00 | 0.00 | 41 | 1015.0 |
| 20260505195507 | 26 | 177 | 3.2 | 9.7 | 0.00 | 0.00 | 0.00 | 40 | 1015.2 |
| 20260505195009 | 26 | 163 | 3.2 | 9.7 | 0.00 | 0.00 | 0.00 | 40 | 1015.1 |
| 20260505194529 | 26 | 115 | 4.8 | 9.7 | 0.00 | 0.00 | 0.00 | 41 | 1015.1 |
| 20260505194011 | 26 | 250 | 3.2 | 9.7 | 0.00 | 0.00 | 0.00 | 43 | 1015.1 |
| 20260505193502 | 26 | 281 | 3.2 | 9.7 | 0.00 | 0.00 | 0.00 | 40 | 1015.4 |
| 20260505193014 | 26 | 141 | 4.8 | 9.7 | 0.00 | 0.00 | 0.00 | 39 | 1015.4 |
| 20260505192506 | 26 | 230 | 3.2 | 9.7 | 0.00 | 0.00 | 0.00 | 39 | 1015.3 |
| 20260505192012 | 26 | 138 | 3.2 | 9.7 | 0.00 | 0.00 | 0.00 | 40 | 1015.4 |
| 20260505191520 | 26 | 111 | 3.2 | 9.7 | 0.00 | 0.00 | 0.00 | 40 | 1015.4 |
| 20260505191009 | 26 | 174 | 1.6 | 19.3 | 0.00 | 0.00 | 0.00 | 43 | 1015.5 |
| 20260505190512 | 25 | 127 | 8.0 | 19.3 | 0.00 | 0.00 | 0.00 | 40 | 1015.8 |
| 20260505190032 | 26 | 84 | 3.2 | 16.1 | 0.00 | 0.00 | 0.00 | 40 | 1015.9 |
| 20260505185507 | 26 | 224 | 6.4 | 16.1 | 0.00 | 0.00 | 0.00 | 39 | 1015.8 |
| 20260505185009 | 26 | 130 | 6.4 | 16.1 | 0.00 | 0.00 | 0.00 | 41 | 1015.9 |
| 20260505184526 | 26 | 112 | 4.8 | 14.5 | 0.00 | 0.00 | 0.00 | 40 | 1015.8 |
| 20260505184009 | 26 | 162 | 6.4 | 14.5 | 0.00 | 0.00 | 0.00 | 39 | 1016.0 |
| 20260505183513 | 26 | 106 | 4.8 | 12.9 | 0.00 | 0.00 | 0.00 | 41 | 1016.1 |
| 20260505183031 | 26 | 281 | 3.2 | 14.5 | 0.00 | 0.00 | 0.00 | 40 | 1016.2 |
| 20260505182509 | 25 | 198 | 4.8 | 14.5 | 0.00 | 0.00 | 0.00 | 41 | 1016.2 |
| 20260505182008 | 25 | 219 | 1.6 | 16.1 | 0.00 | 0.00 | 0.00 | 40 | 1016.3 |
| 20260505181515 | 25 | 141 | 4.8 | 17.7 | 0.00 | 0.00 | 0.00 | 41 | 1016.3 |
| 20260505181006 | 25 | 184 | 6.4 | 17.7 | 0.00 | 0.00 | 0.00 | 41 | 1016.4 |
| 20260505180508 | 26 | 164 | 4.8 | 14.5 | 0.00 | 0.00 | 0.00 | 41 | 1016.6 |
| 20260505180021 | 26 | 160 | 4.8 | 11.3 | 0.00 | 0.00 | 0.00 | 40 | 1016.6 |
| 20260505175505 | 26 | 145 | 4.8 | 14.5 | 0.00 | 0.00 | 0.00 | 39 | 1016.5 |
| 20260505175014 | 25 | 310 | 4.8 | 14.5 | 0.00 | 0.00 | 0.00 | 39 | 1016.4 |
| 20260505174523 | 25 | 133 | 3.2 | 16.1 | 0.00 | 0.00 | 0.00 | 42 | 1016.6 |
| 20260505174012 | 25 | 187 | 4.8 | 16.1 | 0.00 | 0.00 | 0.00 | 40 | 1016.6 |
| 20260505173509 | 25 | 150 | 4.8 | 12.9 | 0.00 | 0.00 | 0.00 | 42 | 1016.6 |
| 20260505173036 | 25 | 26 | 4.8 | 9.7 | 0.00 | 0.00 | 0.00 | 43 | 1016.7 |
| 20260505172511 | 25 | 208 | 3.2 | 9.7 | 0.00 | 0.00 | 0.00 | 44 | 1016.8 |
| 20260505172015 | 25 | 101 | 3.2 | 9.7 | 0.00 | 0.00 | 0.00 | 43 | 1016.6 |
| 20260505171542 | 25 | 137 | 4.8 | 9.7 | 0.00 | 0.00 | 0.00 | 44 | 1016.6 |
| 20260505171010 | 24 | 174 | 1.6 | 17.7 | 0.00 | 0.00 | 0.00 | 45 | 1016.5 |
| 20260505170509 | 25 | 145 | 6.4 | 17.7 | 0.00 | 0.00 | 0.00 | 40 | 1016.7 |
| 20260505170020 | 24 | 141 | 3.2 | 14.5 | 0.00 | 0.00 | 0.00 | 45 | 1017.0 |
| 20260505165509 | 25 | 233 | 4.8 | 14.5 | 0.00 | 0.00 | 0.00 | 44 | 1017.0 |
| 20260505165008 | 25 | 121 | 4.8 | 14.5 | 0.00 | 0.00 | 0.00 | 45 | 1017.0 |
| 20260505164519 | 25 | 169 | 4.8 | 14.5 | 0.00 | 0.00 | 0.00 | 42 | 1016.9 |
| 20260505164009 | 25 | 256 | 4.8 | 11.3 | 0.00 | 0.00 | 0.00 | 41 | 1017.2 |
| 20260505163510 | 25 | 148 | 3.2 | 9.7 | 0.00 | 0.00 | 0.00 | 48 | 1017.1 |
| 20260505163024 | 24 | 229 | 4.8 | 14.5 | 0.00 | 0.00 | 0.00 | 45 | 1017.3 |
| 20260505163009 | 24 | 231 | 4.8 | 14.5 | 0.00 | 0.00 | 0.00 | 45 | 1017.3 |
| 20260505162503 | 24 | 134 | 8.0 | 16.1 | 0.00 | 0.00 | 0.00 | 45 | 1017.4 |
| 20260505162003 | 24 | 236 | 3.2 | 16.1 | 0.00 | 0.00 | 0.00 | 47 | 1017.3 |
| 20260505161506 | 24 | 255 | 6.4 | 14.5 | 0.00 | 0.00 | 0.00 | 47 | 1017.3 |
| 20260505161003 | 24 | 101 | 3.2 | 12.9 | 0.00 | 0.00 | 0.00 | 47 | 1017.2 |
| 20260505160506 | 23 | 171 | 3.2 | 12.9 | 0.00 | 0.00 | 0.00 | 47 | 1017.4 |
| 20260505153004 | 23 | 136 | 3.2 | 6.4 | 0.00 | 0.00 | 0.00 | 53 | 1017.4 |
| 20260505152504 | 22 | 204 | 3.2 | 8.0 | 0.00 | 0.00 | 0.00 | 56 | 1017.5 |
| 20260505152004 | 22 | 182 | 3.2 | 8.0 | 0.00 | 0.00 | 0.00 | 56 | 1017.6 |
| 20260505151504 | 22 | 136 | 1.6 | 8.0 | 0.00 | 0.00 | 0.00 | 56 | 1017.5 |
| 20260505151003 | 22 | 164 | 1.6 | 8.0 | 0.00 | 0.00 | 0.00 | 57 | 1017.5 |
| 20260505150507 | 22 | 335 | 1.6 | 6.4 | 0.00 | 0.00 | 0.00 | 62 | 1017.3 |
| 20260505140504 | 17 | 264 | 0.0 | 4.8 | 0.00 | 0.00 | 0.00 | 69 | 1017.4 |
| 20260505125004 | 12 | 149 | 0.0 | 0.0 | 0.00 | 0.00 | 0.00 | 85 | 1016.7 |
| 20260505124510 | 12 | 149 | 0.0 | 0.0 | 0.00 | 0.00 | 0.00 | 86 | 1016.7 |
| 20260505124006 | 11 | 149 | 0.0 | 0.0 | 0.00 | 0.00 | 0.00 | 88 | 1016.6 |
| 20260505123504 | 11 | 149 | 0.0 | 0.0 | 0.00 | 0.00 | 0.00 | 89 | 1016.6 |
| 20260505123013 | 11 | 149 | 0.0 | 0.0 | 0.00 | 0.00 | 0.00 | 90 | 1016.7 |
| 20260505122503 | 10 | 149 | 0.0 | 0.0 | 0.00 | 0.00 | 0.00 | 90 | 1016.8 |
| 20260505122007 | 10 | 149 | 0.0 | 0.0 | 0.00 | 0.00 | 0.00 | 90 | 1016.6 |
| 20260505121515 | 10 | 149 | 0.0 | 0.0 | 0.00 | 0.00 | 0.00 | 90 | 1016.6 |
| 20260505121009 | 10 | 149 | 0.0 | 0.0 | 0.00 | 0.00 | 0.00 | 90 | 1016.4 |
| 20260505120505 | 9 | 149 | 0.0 | 0.0 | 0.00 | 0.00 | 0.00 | 90 | 1016.4 |
| 20260505120048 | 9 | 149 | 0.0 | 0.0 | 0.00 | 0.00 | 0.00 | 90 | 1016.4 |
| 20260505115508 | 8 | 149 | 0.0 | 0.0 | 0.00 | 0.00 | 0.00 | 90 | 1016.4 |
| 20260505115010 | 8 | 149 | 0.0 | 0.0 | 0.00 | 0.00 | 0.00 | 90 | 1016.3 |
| 20260505114526 | 8 | 149 | 0.0 | 0.0 | 0.00 | 0.00 | 0.00 | 89 | 1016.2 |
| 20260505114010 | 8 | 149 | 0.0 | 0.0 | 0.00 | 0.00 | 0.00 | 89 | 1016.1 |
| 20260505113505 | 8 | 149 | 0.0 | 0.0 | 0.00 | 0.00 | 0.00 | 89 | 1016.1 |
| 20260505113010 | 8 | 149 | 0.0 | 0.0 | 0.00 | 0.00 | 0.00 | 89 | 1016.0 |
| 20260505112503 | 8 | 149 | 0.0 | 0.0 | 0.00 | 0.00 | 0.00 | 89 | 1016.1 |
| 20260505112004 | 8 | 149 | 0.0 | 0.0 | 0.00 | 0.00 | 0.00 | 89 | 1016.0 |
| 20260505111512 | 8 | 149 | 0.0 | 0.0 | 0.00 | 0.00 | 0.00 | 89 | 1015.9 |
| 20260505111009 | 8 | 149 | 0.0 | 1.6 | 0.00 | 0.00 | 0.00 | 89 | 1015.8 |
| 20260505110507 | 8 | 148 | 0.0 | 1.6 | 0.00 | 0.00 | 0.00 | 89 | 1015.8 |
| 20260505102008 | 8 | 323 | 0.0 | 0.0 | 0.00 | 0.00 | 0.00 | 89 | 1015.8 |
| 20260505101519 | 8 | 323 | 0.0 | 0.0 | 0.00 | 0.00 | 0.00 | 89 | 1015.8 |
| 20260505101005 | 8 | 323 | 0.0 | 0.0 | 0.00 | 0.00 | 0.00 | 88 | 1015.7 |
| 20260505100505 | 8 | 323 | 0.0 | 0.0 | 0.00 | 0.00 | 0.00 | 88 | 1015.8 |
| 20260505100022 | 8 | 323 | 0.0 | 0.0 | 0.00 | 0.00 | 0.00 | 88 | 1015.8 |
| 20260505095504 | 8 | 323 | 0.0 | 0.0 | 0.00 | 0.00 | 0.00 | 88 | 1015.7 |
| 20260505095008 | 8 | 323 | 0.0 | 0.0 | 0.00 | 0.00 | 0.00 | 87 | 1015.7 |
| 20260505094517 | 8 | 323 | 0.0 | 0.0 | 0.00 | 0.00 | 0.00 | 87 | 1015.7 |
| 20260505094006 | 8 | 323 | 0.0 | 0.0 | 0.00 | 0.00 | 0.00 | 87 | 1015.7 |
| 20260505093510 | 8 | 323 | 0.0 | 0.0 | 0.00 | 0.00 | 0.00 | 86 | 1015.6 |
| 20260505093025 | 8 | 323 | 0.0 | 0.0 | 0.00 | 0.00 | 0.00 | 86 | 1015.7 |
| 20260505092507 | 8 | 323 | 0.0 | 0.0 | 0.00 | 0.00 | 0.00 | 86 | 1015.8 |
| 20260505092013 | 8 | 323 | 0.0 | 0.0 | 0.00 | 0.00 | 0.00 | 86 | 1015.9 |
| 20260505091530 | 8 | 323 | 0.0 | 0.0 | 0.00 | 0.00 | 0.00 | 86 | 1016.0 |
| 20260505091009 | 8 | 323 | 0.0 | 0.0 | 0.00 | 0.00 | 0.00 | 86 | 1016.2 |
| 20260505090508 | 8 | 323 | 0.0 | 0.0 | 0.00 | 0.00 | 0.00 | 86 | 1016.1 |
| 20260505090026 | 8 | 323 | 0.0 | 0.0 | 0.00 | 0.00 | 0.00 | 86 | 1016.0 |
| 20260505085506 | 8 | 323 | 0.0 | 0.0 | 0.00 | 0.00 | 0.00 | 87 | 1016.1 |
| 20260505085004 | 8 | 323 | 0.0 | 0.0 | 0.00 | 0.00 | 0.00 | 87 | 1016.0 |
| 20260505084516 | 8 | 323 | 0.0 | 0.0 | 0.00 | 0.00 | 0.00 | 87 | 1016.1 |
| 20260505084007 | 8 | 323 | 0.0 | 0.0 | 0.00 | 0.00 | 0.00 | 87 | 1016.1 |
| 20260505083507 | 9 | 323 | 0.0 | 1.6 | 0.00 | 0.00 | 0.00 | 87 | 1016.2 |
| 20260505083027 | 8 | 323 | 0.0 | 1.6 | 0.00 | 0.00 | 0.00 | 86 | 1016.1 |
| 20260505082507 | 8 | 113 | 0.0 | 0.0 | 0.00 | 0.00 | 0.00 | 86 | 1016.1 |
| 20260505082008 | 9 | 113 | 0.0 | 1.6 | 0.00 | 0.00 | 0.00 | 86 | 1016.0 |
| 20260505081528 | 9 | 113 | 0.0 | 1.6 | 0.00 | 0.00 | 0.00 | 87 | 1015.8 |
| 20260505081011 | 9 | 113 | 0.0 | 1.6 | 0.00 | 0.00 | 0.00 | 86 | 1015.8 |
| 20260505080508 | 9 | 113 | 0.0 | 1.6 | 0.00 | 0.00 | 0.00 | 86 | 1015.8 |
| 20260505080033 | 9 | 234 | 0.0 | 0.0 | 0.00 | 0.00 | 0.00 | 86 | 1015.6 |
| 20260505075512 | 9 | 234 | 0.0 | 0.0 | 0.00 | 0.00 | 0.00 | 86 | 1015.5 |
| 20260505075012 | 10 | 234 | 0.0 | 0.0 | 0.00 | 0.00 | 0.00 | 86 | 1015.5 |
| 20260505074510 | 10 | 234 | 0.0 | 0.0 | 0.00 | 0.00 | 0.00 | 86 | 1015.5 |
| 20260505074005 | 10 | 234 | 0.0 | 0.0 | 0.00 | 0.00 | 0.00 | 86 | 1015.6 |
| 20260505073506 | 10 | 234 | 0.0 | 0.0 | 0.00 | 0.00 | 0.00 | 85 | 1015.5 |
| 20260505073029 | 10 | 234 | 0.0 | 0.0 | 0.00 | 0.00 | 0.00 | 85 | 1015.6 |
| 20260505072511 | 10 | 234 | 0.0 | 0.0 | 0.00 | 0.00 | 0.00 | 84 | 1015.5 |
| 20260505072007 | 10 | 234 | 0.0 | 0.0 | 0.00 | 0.00 | 0.00 | 84 | 1015.6 |
| 20260505071524 | 10 | 234 | 0.0 | 0.0 | 0.00 | 0.00 | 0.00 | 85 | 1015.7 |
| 20260505071006 | 10 | 234 | 0.0 | 0.0 | 0.00 | 0.00 | 0.00 | 85 | 1015.7 |
| 20260505070512 | 10 | 234 | 0.0 | 0.0 | 0.00 | 0.00 | 0.00 | 85 | 1015.6 |
| 20260505070026 | 10 | 234 | 0.0 | 0.0 | 0.00 | 0.00 | 0.00 | 85 | 1015.6 |
| 20260505065508 | 10 | 234 | 0.0 | 0.0 | 0.00 | 0.00 | 0.00 | 84 | 1015.6 |
| 20260505065012 | 10 | 234 | 0.0 | 0.0 | 0.00 | 0.00 | 0.00 | 83 | 1015.7 |
| 20260505064539 | 10 | 234 | 0.0 | 0.0 | 0.00 | 0.00 | 0.00 | 83 | 1015.7 |
| 20260505064010 | 10 | 234 | 0.0 | 0.0 | 0.00 | 0.00 | 0.00 | 84 | 1015.7 |
| 20260505063509 | 10 | 234 | 0.0 | 0.0 | 0.00 | 0.00 | 0.00 | 82 | 1015.7 |
| 20260505063029 | 11 | 234 | 0.0 | 1.6 | 0.00 | 0.00 | 0.00 | 82 | 1015.7 |
| 20260505062505 | 10 | 234 | 0.0 | 1.6 | 0.00 | 0.00 | 0.00 | 84 | 1015.8 |
| 20260505062006 | 10 | 242 | 0.0 | 1.6 | 0.00 | 0.00 | 0.00 | 85 | 1015.8 |
| 20260505061530 | 10 | 242 | 0.0 | 0.0 | 0.00 | 0.00 | 0.00 | 85 | 1015.8 |
| 20260505061007 | 10 | 242 | 0.0 | 1.6 | 0.00 | 0.00 | 0.00 | 85 | 1015.8 |
| 20260505060508 | 10 | 242 | 0.0 | 1.6 | 0.00 | 0.00 | 0.00 | 85 | 1015.8 |
| 20260505060007 | 10 | 157 | 0.0 | 0.0 | 0.00 | 0.00 | 0.00 | 85 | 1015.9 |
| 20260505055512 | 10 | 157 | 0.0 | 0.0 | 0.00 | 0.00 | 0.00 | 84 | 1015.9 |
| 20260505055003 | 10 | 157 | 0.0 | 0.0 | 0.00 | 0.00 | 0.00 | 84 | 1015.9 |
| 20260505054505 | 10 | 157 | 0.0 | 0.0 | 0.00 | 0.00 | 0.00 | 84 | 1015.9 |
| 20260505054003 | 11 | 157 | 0.0 | 0.0 | 0.00 | 0.00 | 0.00 | 84 | 1016.1 |
| 20260505053504 | 11 | 157 | 0.0 | 0.0 | 0.00 | 0.00 | 0.00 | 83 | 1016.0 |
| 20260505053010 | 11 | 158 | 0.0 | 0.0 | 0.00 | 0.00 | 0.00 | 82 | 1016.1 |
| 20260505052503 | 11 | 157 | 0.0 | 0.0 | 0.00 | 0.00 | 0.00 | 82 | 1016.0 |
| 20260505052006 | 11 | 157 | 0.0 | 0.0 | 0.00 | 0.00 | 0.00 | 82 | 1016.0 |
| 20260505051517 | 11 | 157 | 0.0 | 0.0 | 0.00 | 0.00 | 0.00 | 82 | 1016.0 |
| 20260505051009 | 11 | 157 | 0.0 | 0.0 | 0.00 | 0.00 | 0.00 | 81 | 1016.1 |
| 20260505050506 | 11 | 157 | 0.0 | 0.0 | 0.00 | 0.00 | 0.00 | 81 | 1016.0 |
| 20260505041514 | 13 | 233 | 0.0 | 0.0 | 0.00 | 0.00 | 0.00 | 77 | 1016.1 |
| 20260505041006 | 13 | 233 | 0.0 | 0.0 | 0.00 | 0.00 | 0.00 | 73 | 1016.1 |
| 20260505040506 | 13 | 233 | 0.0 | 1.6 | 0.00 | 0.00 | 0.00 | 75 | 1016.1 |
| 20260505040018 | 13 | 233 | 0.0 | 1.6 | 0.00 | 0.00 | 0.00 | 75 | 1016.1 |
| 20260505035507 | 13 | 233 | 0.0 | 1.6 | 0.00 | 0.00 | 0.00 | 74 | 1016.1 |
| 20260505035007 | 13 | 233 | 0.0 | 1.6 | 0.00 | 0.00 | 0.00 | 73 | 1016.2 |
| 20260505034526 | 13 | 234 | 0.0 | 0.0 | 0.00 | 0.00 | 0.00 | 74 | 1016.3 |
| 20260505034011 | 13 | 234 | 0.0 | 0.0 | 0.00 | 0.00 | 0.00 | 76 | 1016.3 |
| 20260505033503 | 13 | 234 | 0.0 | 0.0 | 0.00 | 0.00 | 0.00 | 77 | 1016.3 |
| 20260505033006 | 13 | 234 | 0.0 | 0.0 | 0.00 | 0.00 | 0.00 | 77 | 1016.3 |
| 20260505032503 | 13 | 234 | 0.0 | 1.6 | 0.00 | 0.00 | 0.00 | 77 | 1016.3 |
| 20260505032003 | 13 | 234 | 0.0 | 1.6 | 0.00 | 0.00 | 0.00 | 75 | 1016.3 |
| 20260505031526 | 13 | 234 | 0.0 | 1.6 | 0.00 | 0.00 | 0.00 | 77 | 1016.3 |
| 20260505031003 | 13 | 234 | 0.0 | 0.0 | 0.00 | 0.00 | 0.00 | 78 | 1016.3 |
| 20260505030504 | 13 | 234 | 0.0 | 1.6 | 0.00 | 0.00 | 0.00 | 77 | 1016.3 |
| 20260505030015 | 13 | 234 | 0.0 | 1.6 | 0.00 | 0.00 | 0.00 | 76 | 1016.4 |
| 20260505025504 | 13 | 234 | 0.0 | 0.0 | 0.00 | 0.00 | 0.00 | 77 | 1016.3 |
| 20260505025008 | 13 | 234 | 0.0 | 0.0 | 0.00 | 0.00 | 0.00 | 76 | 1016.3 |
| 20260505024531 | 13 | 234 | 0.0 | 0.0 | 0.00 | 0.00 | 0.00 | 76 | 1016.3 |
| 20260505024007 | 13 | 234 | 0.0 | 0.0 | 0.00 | 0.00 | 0.00 | 75 | 1016.3 |
| 20260505023508 | 13 | 234 | 0.0 | 0.0 | 0.00 | 0.00 | 0.00 | 74 | 1016.3 |
| 20260505023025 | 13 | 234 | 0.0 | 0.0 | 0.00 | 0.00 | 0.00 | 73 | 1016.3 |
| 20260505022508 | 13 | 234 | 0.0 | 0.0 | 0.00 | 0.00 | 0.00 | 72 | 1016.3 |
| 20260505022003 | 14 | 234 | 0.0 | 0.0 | 0.00 | 0.00 | 0.00 | 72 | 1016.2 |
| 20260505021505 | 14 | 234 | 0.0 | 0.0 | 0.00 | 0.00 | 0.00 | 71 | 1016.2 |
| 20260505021006 | 14 | 234 | 0.0 | 0.0 | 0.00 | 0.00 | 0.00 | 71 | 1016.2 |
| 20260505020503 | 15 | 234 | 0.0 | 0.0 | 0.00 | 0.00 | 0.00 | 71 | 1016.2 |
| 20260505020027 | 15 | 234 | 0.0 | 0.0 | 0.00 | 0.00 | 0.00 | 70 | 1016.1 |
| 20260505015504 | 15 | 234 | 0.0 | 0.0 | 0.00 | 0.00 | 0.00 | 69 | 1016.1 |
| 20260505015007 | 15 | 234 | 0.0 | 0.0 | 0.00 | 0.00 | 0.00 | 67 | 1016.0 |
| 20260505014527 | 15 | 234 | 0.0 | 0.0 | 0.00 | 0.00 | 0.00 | 67 | 1015.9 |
| 20260505014008 | 15 | 234 | 0.0 | 0.0 | 0.00 | 0.00 | 0.00 | 66 | 1015.9 |
| 20260505013509 | 16 | 234 | 0.0 | 0.0 | 0.00 | 0.00 | 0.00 | 66 | 1015.8 |
| 20260505013024 | 16 | 234 | 0.0 | 0.0 | 0.00 | 0.00 | 0.00 | 64 | 1015.8 |
| 20260505012509 | 16 | 234 | 0.0 | 0.0 | 0.00 | 0.00 | 0.00 | 63 | 1015.7 |
| 20260505012009 | 16 | 234 | 0.0 | 0.0 | 0.00 | 0.00 | 0.00 | 63 | 1015.7 |
| 20260505011531 | 16 | 234 | 0.0 | 0.0 | 0.00 | 0.00 | 0.00 | 61 | 1015.8 |
| 20260505011010 | 17 | 234 | 0.0 | 0.0 | 0.00 | 0.00 | 0.00 | 60 | 1015.7 |
| 20260505010513 | 17 | 234 | 0.0 | 0.0 | 0.00 | 0.00 | 0.00 | 58 | 1015.6 |
| 20260505010009 | 17 | 234 | 0.0 | 0.0 | 0.00 | 0.00 | 0.00 | 57 | 1015.5 |
| 20260505005503 | 18 | 234 | 0.0 | 0.0 | 0.00 | 0.00 | 0.00 | 56 | 1015.5 |
| 20260505005004 | 18 | 234 | 0.0 | 0.0 | 0.00 | 0.00 | 0.00 | 54 | 1015.5 |
| 20260505004529 | 18 | 234 | 0.0 | 0.0 | 0.00 | 0.00 | 0.00 | 54 | 1015.5 |
| 20260505004003 | 19 | 234 | 0.0 | 0.0 | 0.00 | 0.00 | 0.00 | 52 | 1015.5 |
| 20260505003507 | 19 | 234 | 0.0 | 0.0 | 0.00 | 0.00 | 0.00 | 52 | 1015.4 |
| 20260505003020 | 20 | 234 | 0.0 | 0.0 | 0.00 | 0.00 | 0.00 | 50 | 1015.3 |
| 20260505002509 | 20 | 234 | 0.0 | 0.0 | 0.00 | 0.00 | 0.00 | 50 | 1015.3 |
| 20260505002012 | 20 | 234 | 0.0 | 1.6 | 0.00 | 0.00 | 0.00 | 49 | 1015.2 |
| 20260505001524 | 21 | 234 | 0.0 | 1.6 | 0.00 | 0.00 | 0.00 | 46 | 1015.3 |
| 20260505001014 | 21 | 234 | 0.0 | 1.6 | 0.00 | 0.00 | 0.00 | 46 | 1015.3 |
| 20260505000513 | 21 | 234 | 0.0 | 1.6 | 0.00 | 0.00 | 0.00 | 44 | 1015.2 |
| 20260505000039 | 21 | 157 | 0.0 | 3.2 | 0.00 | 0.00 | 0.00 | 44 | 1015.3 |
| 20260504235510 | 21 | 167 | 0.0 | 3.2 | 0.00 | 0.00 | 0.00 | 44 | 1015.3 |
| 20260504235010 | 22 | 163 | 0.0 | 3.2 | 0.00 | 0.00 | 0.00 | 43 | 1015.3 |
| 20260504234507 | 22 | 158 | 0.0 | 4.8 | 0.00 | 0.00 | 0.00 | 43 | 1015.3 |
| 20260504234003 | 22 | 198 | 0.0 | 4.8 | 0.00 | 0.00 | 0.00 | 42 | 1015.2 |
| 20260504233503 | 22 | 152 | 0.0 | 3.2 | 0.00 | 0.00 | 0.00 | 42 | 1015.3 |
| 20260504233013 | 22 | 165 | 0.0 | 4.8 | 0.00 | 0.00 | 0.00 | 42 | 1015.3 |
| 20260504232507 | 22 | 262 | 1.6 | 4.8 | 0.00 | 0.00 | 0.00 | 41 | 1015.3 |
| 20260504232007 | 22 | 212 | 1.6 | 6.4 | 0.00 | 0.00 | 0.00 | 41 | 1015.3 |
| 20260504231518 | 22 | 153 | 1.6 | 6.4 | 0.00 | 0.00 | 0.00 | 41 | 1015.3 |
| 20260504231009 | 22 | 208 | 1.6 | 6.4 | 0.00 | 0.00 | 0.00 | 40 | 1015.3 |
| 20260504230506 | 23 | 127 | 0.0 | 6.4 | 0.00 | 0.00 | 0.00 | 40 | 1015.1 |
| 20260504230022 | 23 | 167 | 0.0 | 8.0 | 0.00 | 0.00 | 0.00 | 40 | 1015.2 |
| 20260504225507 | 23 | 226 | 1.6 | 8.0 | 0.00 | 0.00 | 0.00 | 39 | 1015.3 |
| 20260504225015 | 23 | 288 | 1.6 | 6.4 | 0.00 | 0.00 | 0.00 | 41 | 1015.2 |
| 20260504224525 | 23 | 207 | 0.0 | 6.4 | 0.00 | 0.00 | 0.00 | 40 | 1015.2 |